Tracking 22287 objects as of 27-Jan-2021
HD Live streaming from Space Station
objects crossing your sky now

NIMBUS 5

Track NIMBUS 5 now!
10-day predictions
NIMBUS 5 is classified as:


NORAD ID: 6305
Int'l Code: 1972-097A
Perigee: 1,095.3 km
Apogee: 1,106.8 km
Inclination: 99.9 °
Period: 107.1 minutes
Semi major axis: 7472 km
RCS: 3.4528 m2 (large)
Launch date: December 11, 1972
Source: United States (US)
Launch site: AIR FORCE WESTERN TEST RANGE (AFWTR)
aabbcc
Your satellite tracking list
Your tracking list is empty




NASA's NSSDC Master Catalog

Two Line Element Set (TLE):
1  6305U 72097A   21026.98043964 -.00000043  00000-0  22953-5 0  9997
2  6305  99.9294 297.4855 0007724 274.4177  96.4546 13.44137761360718
Source of the keplerian elements: AFSPC